Regional Weather Roundup
Issued by NWS

Home | Current Version | Previous Version | Graphics & Text | Print | Product List | Glossary On
Versions: 1 2 3 4 5 6 7 8 9 10 11 12 13 14 15 16 17 18 19 20 21 22 23 24 25 26 27 28 29 30 31 32 33 34 35 36 37 38 39 40 41 42 43 44 45 46 47 48 49 50
000
ASUS43 KLMK 181302
RWRKY
KENTUCKY REGIONAL WEATHER ROUNDUP
NATIONAL WEATHER SERVICE LOUISVILLE KY
900 AM EDT THU SEP 18 2014

NOTE "FAIR" INDICATES FEW OR NO CLOUDS BELOW 12,000 FEET
WITH NO SIGNIFICANT WEATHER AND/OR OBSTRUCTIONS TO VISIBILITY.

KYZ001>023-026-027-061>063-070>075-181400-
WESTERN AND SOUTH CENTRAL KENTUCKY

CITY           SKY/WX    TMP DP  RH WIND       PRES   REMARKS
PADUCAH        CLOUDY    67  60  78 NE6       30.00R
HENDERSON      PTSUNNY   63  54  72 NE6       30.03S
OWENSBORO      MOSUNNY   63  54  72 E8        30.04R
HOPKINSVILLE   MOSUNNY   60  60 100 NE2       30.01R
BOWLING GREEN  SUNNY     60  55  83 CALM      30.02R
GLASGOW        NOT AVBL
$$

KYZ024-025-028>034-038-045-046-053-181400-
NORTH CENTRAL KENTUCKY

CITY           SKY/WX    TMP DP  RH WIND       PRES   REMARKS
LOUISVILLE/SDF PTSUNNY   60  53  77 NE7       30.05R
LOUISVILLE/LOU CLOUDY    59  52  77 N6        30.06S
FORT KNOX      CLOUDY    58  53  84 N5        30.04R
$$

KYZ035>037-039>044-047>052-055>060-089>105-181400-
NORTHEAST KENTUCKY

CITY           SKY/WX    TMP DP  RH WIND       PRES   REMARKS
LEXINGTON      SUNNY     61  51  70 NE8       30.06R
COVINGTON      SUNNY     57  50  77 NE5       30.07R
FRANKFORT      CLOUDY    57  51  80 NE3       30.06R
$$

KYZ054-064>069-076>088-106>120-181400-
SOUTHEAST KENTUCKY

CITY           SKY/WX    TMP DP  RH WIND       PRES   REMARKS
JACKSON        PTSUNNY   58  54  86 CALM      30.05R
LONDON         CLOUDY    60  55  83 CALM      30.04S
SOMERSET       NOT AVBL
MIDDLESBORO    CLOUDY    57  57  99 CALM      30.05R FOG
MONTICELLO     MOSUNNY   62  59  90 NE5       30.04S
$$




USA.gov is the U.S. government's official web portal to all federal, state and local government web resources and services.